COSMOS 1892

Last updated on Wed Dec 03 2025 00:02:14 GMT+0000 (Coordinated Universal Time)

1 18421U 87088A 25335.95781801 .04125319 -12437-5 53124-3 0 9990 2 18421 82.4559 55.6045 0006820 269.6843 90.3672 16.35834047 89601

Satellite not in orbit

COSMOS 1892